| time (UTC) | temp F | wind direction | speed MPH | gust MPH | rain 1hr in | rain 24hr in | rain mn in | humidity % | barometer mb |
| 20260902143500 | 66 | 235 | 4.0 | 7.0 | 0.00 | 0.04 | 0.00 | 83 | 1018.6 |
| 20260902143000 | 66 | 224 | 5.0 | 8.0 | 0.00 | 0.04 | 0.00 | 82 | 1018.8 |
| 20260902142459 | 66 | 211 | 3.0 | 5.0 | 0.00 | 0.04 | 0.00 | 81 | 1018.7 |
| 20260902141514 | 67 | 202 | 7.0 | 11.0 | 0.00 | 0.04 | 0.00 | 76 | 1019.2 |
| 20260902140459 | 68 | 199 | 7.0 | 9.0 | 0.00 | 0.04 | 0.00 | 71 | 1019.0 |
| 20260902135513 | 69 | 203 | 6.0 | 9.0 | 0.00 | 0.04 | 0.00 | 71 | 1019.0 |
| 20260902134458 | 68 | 207 | 4.0 | 9.0 | 0.00 | 0.04 | 0.00 | 72 | 1018.9 |
| 20260902133512 | 67 | 222 | 9.0 | 13.0 | 0.00 | 0.04 | 0.00 | 71 | 1019.0 |
| 20260902132457 | 67 | 250 | 4.0 | 5.0 | 0.00 | 0.04 | 0.00 | 71 | 1018.8 |
| 20260902131511 | 67 | 264 | 4.0 | 5.0 | 0.00 | 0.04 | 0.00 | 71 | 1019.3 |
| 20260902131011 | 67 | 253 | 5.0 | 9.0 | 0.00 | 0.04 | 0.00 | 70 | 1019.2 |
| 20260902130510 | 67 | 241 | 4.0 | 7.0 | 0.00 | 0.04 | 0.00 | 70 | 1019.2 |
| 20260902125510 | 67 | 235 | 6.0 | 8.0 | 0.00 | 0.04 | 0.00 | 70 | 1019.2 |
| 20260902124459 | 67 | 228 | 5.0 | 8.0 | 0.00 | 0.04 | 0.00 | 70 | 1019.3 |
| 20260902123514 | 66 | 233 | 2.0 | 4.0 | 0.00 | 0.04 | 0.00 | 70 | 1019.4 |
| 20260902122958 | 66 | 222 | 2.0 | 4.0 | 0.00 | 0.04 | 0.00 | 71 | 1019.5 |
| 20260902122458 | 66 | 233 | 2.0 | 3.0 | 0.00 | 0.04 | 0.00 | 71 | 1019.5 |
| 20260902121512 | 66 | 229 | 5.0 | 7.0 | 0.00 | 0.04 | 0.00 | 71 | 1019.6 |
| 20260902120512 | 66 | 223 | 5.0 | 8.0 | 0.00 | 0.04 | 0.00 | 71 | 1019.7 |
| 20260902115517 | 66 | 195 | 5.0 | 9.0 | 0.00 | 0.04 | 0.00 | 71 | 1019.6 |
| 20260902115011 | 67 | 256 | 3.0 | 4.0 | 0.00 | 0.04 | 0.00 | 71 | 1019.6 |
| 20260902114510 | 67 | 227 | 4.0 | 7.0 | 0.00 | 0.04 | 0.00 | 72 | 1019.7 |
| 20260902113510 | 67 | 198 | 4.0 | 9.0 | 0.00 | 0.04 | 0.00 | 71 | 1019.8 |
| 20260902113010 | 67 | 206 | 4.0 | 6.0 | 0.00 | 0.04 | 0.00 | 72 | 1019.7 |
| 20260902112509 | 67 | 200 | 4.0 | 6.0 | 0.00 | 0.04 | 0.00 | 73 | 1019.7 |
| 20260902111509 | 67 | 242 | 4.0 | 6.0 | 0.00 | 0.04 | 0.00 | 77 | 1019.9 |
| 20260902111009 | 66 | 258 | 3.0 | 4.0 | 0.00 | 0.04 | 0.00 | 80 | 1019.9 |
| 20260902110458 | 65 | 262 | 5.0 | 8.0 | 0.00 | 0.04 | 0.00 | 80 | 1020.2 |
| 20260902105513 | 64 | 263 | 4.0 | 7.0 | 0.00 | 0.04 | 0.00 | 81 | 1020.3 |
| 20260902105003 | 64 | 245 | 5.0 | 8.0 | 0.00 | 0.04 | 0.00 | 80 | 1020.3 |
| 20260902104517 | 64 | 233 | 6.0 | 11.0 | 0.00 | 0.04 | 0.00 | 80 | 1020.2 |
| 20260902103507 | 65 | 191 | 4.0 | 6.0 | 0.01 | 0.04 | 0.00 | 82 | 1020.3 |
| 20260902103006 | 65 | 201 | 2.0 | 4.0 | 0.01 | 0.04 | 0.00 | 84 | 1020.2 |
| 20260902102506 | 65 | 215 | 1.0 | 2.0 | 0.01 | 0.04 | 0.00 | 86 | 1020.2 |
| 20260902101505 | 65 | 203 | 2.0 | 3.0 | 0.02 | 0.04 | 0.00 | 86 | 1020.4 |
| 20260902101005 | 65 | 186 | 2.0 | 3.0 | 0.02 | 0.04 | 0.00 | 86 | 1020.3 |
| 20260902100504 | 65 | 159 | 2.0 | 2.0 | 0.02 | 0.04 | 0.00 | 86 | 1020.5 |
| 20260902095504 | 64 | 138 | 2.0 | 3.0 | 0.04 | 0.04 | 0.00 | 87 | 1020.5 |
| 20260902095004 | 64 | 161 | 1.0 | 2.0 | 0.04 | 0.04 | 0.00 | 88 | 1020.4 |
| 20260902094503 | 63 | 177 | 0.0 | 1.0 | 0.04 | 0.04 | 0.00 | 90 | 1020.4 |
| 20260902093503 | 63 | 215 | 0.0 | 1.0 | 0.02 | 0.02 | 0.00 | 90 | 1020.4 |
| 20260902093003 | 63 | 216 | 1.0 | 2.0 | 0.02 | 0.02 | 0.00 | 89 | 1020.6 |
| 20260902092502 | 62 | 220 | 2.0 | 2.0 | 0.02 | 0.02 | 0.00 | 88 | 1020.6 |
| 20260902091502 | 63 | 224 | 2.0 | 3.0 | 0.01 | 0.01 | 0.00 | 87 | 1020.7 |
| 20260902091002 | 63 | 233 | 2.0 | 2.0 | 0.01 | 0.01 | 0.00 | 86 | 1020.7 |
| 20260902090501 | 63 | 237 | 2.0 | 3.0 | 0.01 | 0.01 | 0.00 | 85 | 1020.5 |
| 20260902085516 | 63 | 228 | 4.0 | 7.0 | 0.00 | 0.00 | 0.00 | 84 | 1020.6 |
| 20260902085006 | 63 | 234 | 4.0 | 6.0 | 0.00 | 0.00 | 0.00 | 85 | 1020.6 |
| 20260902084505 | 64 | 262 | 2.0 | 4.0 | 0.00 | 0.00 | 0.00 | 82 | 1020.6 |
| 20260902083505 | 64 | 254 | 3.0 | 5.0 | 0.00 | 0.00 | 0.00 | 81 | 1020.6 |
| 20260902083005 | 64 | 249 | 3.0 | 5.0 | 0.00 | 0.00 | 0.00 | 81 | 1020.6 |
| 20260902082504 | 64 | 288 | 2.0 | 4.0 | 0.00 | 0.00 | 0.00 | 81 | 1020.3 |
| 20260902081504 | 64 | 244 | 3.0 | 4.0 | 0.00 | 0.00 | 0.00 | 81 | 1020.5 |
| 20260902081003 | 64 | 266 | 2.0 | 3.0 | 0.00 | 0.00 | 0.00 | 81 | 1020.4 |
| 20260902080502 | 64 | 360 | 4.0 | 4.0 | 0.00 | 0.00 | 0.00 | 81 | 1020.4 |
| 20260902075517 | 64 | 225 | 2.0 | 3.0 | 0.00 | 0.00 | 0.00 | 80 | 1020.1 |
| 20260902075006 | 64 | 207 | 2.0 | 4.0 | 0.00 | 0.00 | 0.00 | 80 | 1020.2 |
| 20260902074456 | 64 | 190 | 2.0 | 3.0 | 0.00 | 0.00 | 0.00 | 80 | 1020.1 |
| 20260902073511 | 64 | 229 | 2.0 | 2.0 | 0.00 | 0.00 | 0.00 | 81 | 1020.1 |
| 20260902073010 | 63 | 196 | 2.0 | 2.0 | 0.00 | 0.00 | 0.00 | 84 | 1020.1 |
| 20260902072510 | 63 | 209 | 1.0 | 2.0 | 0.00 | 0.00 | 0.00 | 84 | 1020.2 |
| 20260902071509 | 63 | 226 | 1.0 | 2.0 | 0.00 | 0.00 | 0.00 | 84 | 1019.9 |
| 20260902071009 | 63 | 221 | 4.0 | 6.0 | 0.00 | 0.00 | 0.00 | 84 | 1020.1 |
| 20260902070509 | 63 | 258 | 2.0 | 2.0 | 0.00 | 0.00 | 0.00 | 85 | 1019.8 |
| 20260902065523 | 62 | 315 | 1.0 | 2.0 | 0.00 | 0.00 | 0.00 | 86 | 1019.9 |
| 20260902065010 | 62 | 315 | 2.0 | 3.0 | 0.00 | 0.00 | 0.00 | 87 | 1019.6 |
| 20260902064510 | 62 | 315 | 0.0 | 1.0 | 0.00 | 0.00 | 0.00 | 87 | 1019.9 |
| 20260902063509 | 61 | 180 | 0.0 | 0.0 | 0.00 | 0.00 | 0.00 | 87 | 1019.9 |
| 20260902063009 | 61 | 180 | 0.0 | 0.0 | 0.00 | 0.00 | 0.00 | 87 | 1019.8 |
| 20260902062508 | 61 | 180 | 0.0 | 0.0 | 0.00 | 0.00 | 0.00 | 87 | 1019.7 |
| 20260902061523 | 60 | 180 | 0.0 | 0.0 | 0.00 | 0.00 | 0.00 | 88 | 1019.6 |
| 20260902060957 | 60 | 180 | 0.0 | 0.0 | 0.00 | 0.00 | 0.00 | 88 | 1019.7 |
| 20260902060511 | 60 | 180 | 0.0 | 0.0 | 0.00 | 0.00 | 0.00 | 88 | 1019.6 |
| 20260902055501 | 60 | 180 | 0.0 | 0.0 | 0.00 | 0.00 | 0.00 | 88 | 1019.6 |
| 20260902055000 | 60 | 180 | 0.0 | 0.0 | 0.00 | 0.00 | 0.00 | 88 | 1019.6 |
| 20260902054500 | 60 | 180 | 0.0 | 0.0 | 0.00 | 0.00 | 0.00 | 88 | 1019.7 |
| 20260902053514 | 60 | 315 | 0.0 | 1.0 | 0.00 | 0.00 | 0.00 | 87 | 1020.1 |
| 20260902053004 | 60 | 315 | 0.0 | 0.0 | 0.00 | 0.00 | 0.00 | 87 | 1020.2 |
| 20260902052519 | 60 | 315 | 0.0 | 1.0 | 0.00 | 0.00 | 0.00 | 87 | 1020.2 |
| 20260902051509 | 60 | 315 | 2.0 | 2.0 | 0.00 | 0.00 | 0.00 | 87 | 1020.0 |
| 20260902051008 | 60 | 180 | 0.0 | 0.0 | 0.00 | 0.00 | 0.00 | 86 | 1019.9 |
| 20260902050508 | 60 | 180 | 0.0 | 0.0 | 0.00 | 0.00 | 0.00 | 86 | 1019.9 |
| 20260902045508 | 60 | 180 | 0.0 | 0.0 | 0.00 | 0.00 | 0.00 | 85 | 1020.1 |
| 20260902045022 | 60 | 315 | 0.0 | 0.0 | 0.00 | 0.00 | 0.00 | 85 | 1020.0 |
| 20260902044502 | 60 | 315 | 0.0 | 0.0 | 0.00 | 0.00 | 0.00 | 85 | 1020.0 |
| 20260902043501 | 60 | 315 | 0.0 | 0.0 | 0.00 | 0.00 | 0.00 | 84 | 1020.0 |
| 20260902043001 | 60 | 315 | 0.0 | 0.0 | 0.00 | 0.00 | 0.00 | 84 | 1020.0 |
| 20260902042500 | 60 | 315 | 1.0 | 2.0 | 0.00 | 0.00 | 0.00 | 84 | 1020.0 |
| 20260902041500 | 60 | 315 | 0.0 | 1.0 | 0.00 | 0.00 | 0.00 | 84 | 1020.2 |
| 20260902041000 | 60 | 315 | 0.0 | 0.0 | 0.00 | 0.00 | 0.00 | 83 | 1020.1 |
| 20260902040514 | 60 | 315 | 1.0 | 2.0 | 0.00 | 0.00 | 0.00 | 83 | 1020.2 |
| 20260902035504 | 60 | 315 | 2.0 | 2.0 | 0.00 | 0.00 | 0.00 | 83 | 1020.3 |
| 20260902035003 | 60 | 315 | 2.0 | 2.0 | 0.00 | 0.00 | 0.00 | 83 | 1020.3 |
| 20260902034503 | 60 | 315 | 1.0 | 2.0 | 0.00 | 0.00 | 0.00 | 83 | 1020.2 |
| 20260902033503 | 60 | 315 | 0.0 | 1.0 | 0.00 | 0.00 | 0.00 | 83 | 1020.2 |
| 20260902033003 | 60 | 315 | 1.0 | 2.0 | 0.00 | 0.00 | 0.00 | 83 | 1020.5 |
| 20260902032502 | 60 | 274 | 0.0 | 1.0 | 0.00 | 0.00 | 0.00 | 83 | 1020.4 |
| 20260902031502 | 60 | 259 | 0.0 | 1.0 | 0.00 | 0.00 | 0.00 | 82 | 1020.4 |
| 20260902031002 | 60 | 257 | 1.0 | 2.0 | 0.00 | 0.00 | 0.00 | 82 | 1020.4 |
| 20260902030501 | 60 | 242 | 0.0 | 1.0 | 0.00 | 0.00 | 0.00 | 82 | 1020.3 |
| 20260902025513 | 60 | 246 | 2.0 | 2.0 | 0.00 | 0.00 | 0.00 | 82 | 1020.5 |
| 20260902024957 | 61 | 237 | 2.0 | 3.0 | 0.00 | 0.00 | 0.00 | 82 | 1020.4 |
| 20260902024512 | 61 | 256 | 1.0 | 2.0 | 0.00 | 0.00 | 0.00 | 82 | 1020.4 |
| 20260902023501 | 61 | 294 | 1.0 | 2.0 | 0.00 | 0.00 | 0.00 | 81 | 1020.5 |
| 20260902023001 | 61 | 279 | 1.0 | 2.0 | 0.00 | 0.00 | 0.00 | 81 | 1020.6 |
| 20260902022501 | 61 | 270 | 1.0 | 2.0 | 0.00 | 0.00 | 0.00 | 81 | 1020.5 |
| 20260902021500 | 61 | 250 | 2.0 | 3.0 | 0.00 | 0.00 | 0.00 | 81 | 1020.3 |
| 20260902021000 | 61 | 271 | 1.0 | 2.0 | 0.00 | 0.00 | 0.00 | 80 | 1020.5 |
| 20260902020514 | 61 | 262 | 1.0 | 2.0 | 0.00 | 0.00 | 0.00 | 80 | 1020.3 |
| 20260902015511 | 61 | 263 | 2.0 | 3.0 | 0.00 | 0.00 | 0.00 | 80 | 1020.5 |
| 20260902014956 | 61 | 253 | 0.0 | 1.0 | 0.00 | 0.00 | 0.00 | 80 | 1020.6 |
| 20260902014511 | 61 | 258 | 0.0 | 1.0 | 0.00 | 0.00 | 0.00 | 80 | 1020.4 |
| 20260902013510 | 61 | 283 | 2.0 | 2.0 | 0.00 | 0.00 | 0.00 | 80 | 1020.6 |
| 20260902013009 | 61 | 292 | 1.0 | 2.0 | 0.00 | 0.00 | 0.00 | 80 | 1020.6 |
| 20260902012509 | 61 | 278 | 0.0 | 1.0 | 0.00 | 0.00 | 0.00 | 80 | 1020.7 |
| 20260902011513 | 61 | 257 | 1.0 | 1.0 | 0.00 | 0.00 | 0.00 | 80 | 1020.9 |
| 20260902010958 | 61 | 257 | 1.0 | 2.0 | 0.00 | 0.00 | 0.00 | 80 | 1021.0 |
| 20260902010458 | 61 | 246 | 1.0 | 2.0 | 0.00 | 0.00 | 0.00 | 80 | 1020.9 |
| 20260902005512 | 61 | 247 | 1.0 | 2.0 | 0.00 | 0.00 | 0.00 | 80 | 1020.9 |
| 20260902004957 | 61 | 239 | 1.0 | 2.0 | 0.00 | 0.00 | 0.00 | 80 | 1021.1 |
| 20260902004511 | 61 | 245 | 1.0 | 2.0 | 0.00 | 0.00 | 0.00 | 80 | 1021.0 |
| 20260902003510 | 61 | 225 | 2.0 | 2.0 | 0.00 | 0.00 | 0.00 | 80 | 1021.0 |
| 20260902003010 | 61 | 225 | 1.0 | 2.0 | 0.00 | 0.00 | 0.00 | 80 | 1021.0 |
| 20260902002509 | 61 | 225 | 0.0 | 1.0 | 0.00 | 0.00 | 0.00 | 80 | 1021.1 |
| 20260902001509 | 61 | 225 | 1.0 | 2.0 | 0.00 | 0.00 | 0.00 | 80 | 1021.0 |
| 20260902001006 | 61 | 225 | 1.0 | 2.0 | 0.00 | 0.00 | 0.00 | 80 | 1021.0 |
| 20260902000506 | 61 | 225 | 1.0 | 2.0 | 0.00 | 0.00 | 0.00 | 80 | 1020.9 |
| 20260901235505 | 61 | 209 | 1.0 | 2.0 | 0.00 | 0.00 | 0.00 | 80 | 1021.1 |
| 20260901235005 | 61 | 191 | 0.0 | 1.0 | 0.00 | 0.00 | 0.00 | 80 | 1021.1 |
| 20260901234503 | 61 | 190 | 0.0 | 1.0 | 0.00 | 0.00 | 0.00 | 80 | 1021.1 |
| 20260901233517 | 61 | 195 | 2.0 | 2.0 | 0.00 | 0.00 | 0.00 | 80 | 1021.3 |
| 20260901233007 | 61 | 188 | 1.0 | 2.0 | 0.00 | 0.00 | 0.00 | 80 | 1021.3 |
| 20260901232507 | 62 | 192 | 2.0 | 2.0 | 0.00 | 0.00 | 0.00 | 80 | 1021.4 |
| 20260901231506 | 61 | 276 | 1.0 | 1.0 | 0.00 | 0.00 | 0.00 | 79 | 1021.1 |
| 20260901231006 | 62 | 243 | 0.0 | 0.0 | 0.00 | 0.00 | 0.00 | 79 | 1021.1 |
| 20260901230506 | 62 | 237 | 0.0 | 1.0 | 0.00 | 0.00 | 0.00 | 79 | 1021.0 |
| 20260901225520 | 62 | 243 | 1.0 | 2.0 | 0.00 | 0.00 | 0.00 | 78 | 1021.3 |
| 20260901225009 | 62 | 235 | 1.0 | 2.0 | 0.00 | 0.00 | 0.00 | 78 | 1021.2 |
| 20260901224509 | 62 | 237 | 1.0 | 2.0 | 0.00 | 0.00 | 0.00 | 78 | 1021.3 |
| 20260901223514 | 62 | 246 | 2.0 | 2.0 | 0.00 | 0.00 | 0.00 | 78 | 1021.3 |
| 20260901222958 | 62 | 225 | 1.0 | 2.0 | 0.00 | 0.00 | 0.00 | 77 | 1021.3 |
| 20260901222513 | 62 | 225 | 1.0 | 2.0 | 0.00 | 0.00 | 0.00 | 77 | 1021.2 |
| 20260901221513 | 63 | 225 | 0.0 | 1.0 | 0.00 | 0.00 | 0.00 | 76 | 1021.2 |
| 20260901221012 | 63 | 225 | 2.0 | 2.0 | 0.00 | 0.00 | 0.00 | 76 | 1021.2 |
| 20260901220512 | 63 | 240 | 1.0 | 2.0 | 0.00 | 0.00 | 0.00 | 75 | 1021.5 |
| 20260901215511 | 63 | 248 | 0.0 | 1.0 | 0.00 | 0.00 | 0.00 | 75 | 1021.3 |
| 20260901215011 | 63 | 250 | 1.0 | 2.0 | 0.00 | 0.00 | 0.00 | 75 | 1021.4 |
| 20260901214510 | 63 | 255 | 0.0 | 1.0 | 0.00 | 0.00 | 0.00 | 75 | 1021.4 |
| 20260901213515 | 63 | 241 | 1.0 | 2.0 | 0.00 | 0.00 | 0.00 | 75 | 1021.2 |
| 20260901213004 | 63 | 236 | 2.0 | 3.0 | 0.00 | 0.00 | 0.00 | 75 | 1021.4 |
| 20260901212504 | 63 | 254 | 1.0 | 2.0 | 0.00 | 0.00 | 0.00 | 74 | 1021.3 |
| 20260901211503 | 63 | 246 | 1.0 | 2.0 | 0.00 | 0.00 | 0.00 | 74 | 1021.3 |
| 20260901211003 | 63 | 247 | 0.0 | 1.0 | 0.00 | 0.00 | 0.00 | 74 | 1021.1 |
| 20260901210503 | 63 | 244 | 1.0 | 2.0 | 0.00 | 0.00 | 0.00 | 74 | 1021.2 |
| 20260901205517 | 63 | 234 | 2.0 | 2.0 | 0.00 | 0.00 | 0.00 | 73 | 1021.4 |
| 20260901205001 | 63 | 228 | 2.0 | 3.0 | 0.00 | 0.00 | 0.00 | 73 | 1021.2 |
| 20260901204516 | 63 | 232 | 2.0 | 4.0 | 0.00 | 0.00 | 0.00 | 73 | 1021.2 |
| 20260901203513 | 63 | 246 | 1.0 | 2.0 | 0.00 | 0.00 | 0.00 | 73 | 1021.1 |
| 20260901203013 | 63 | 239 | 1.0 | 2.0 | 0.00 | 0.00 | 0.00 | 72 | 1021.2 |
| 20260901202503 | 64 | 241 | 2.0 | 2.0 | 0.00 | 0.00 | 0.00 | 70 | 1021.2 |
| 20260901201503 | 64 | 241 | 2.0 | 2.0 | 0.00 | 0.00 | 0.00 | 70 | 1021.0 |
| 20260901201002 | 64 | 256 | 0.0 | 1.0 | 0.00 | 0.00 | 0.00 | 70 | 1021.1 |
| 20260901200517 | 64 | 252 | 2.0 | 3.0 | 0.00 | 0.00 | 0.00 | 70 | 1021.1 |
| 20260901195507 | 64 | 237 | 2.0 | 2.0 | 0.00 | 0.00 | 0.00 | 69 | 1021.0 |
| 20260901195006 | 64 | 242 | 1.0 | 2.0 | 0.00 | 0.00 | 0.00 | 69 | 1021.1 |
| 20260901194506 | 64 | 242 | 1.0 | 2.0 | 0.00 | 0.00 | 0.00 | 69 | 1021.1 |
| 20260901193506 | 64 | 238 | 2.0 | 3.0 | 0.00 | 0.00 | 0.00 | 68 | 1020.8 |
| 20260901193005 | 64 | 225 | 2.0 | 2.0 | 0.00 | 0.00 | 0.00 | 68 | 1020.9 |
| 20260901192505 | 64 | 233 | 2.0 | 3.0 | 0.00 | 0.00 | 0.00 | 67 | 1020.6 |
| 20260901191504 | 65 | 238 | 2.0 | 4.0 | 0.00 | 0.00 | 0.00 | 66 | 1020.6 |
| 20260901191004 | 65 | 241 | 4.0 | 6.0 | 0.00 | 0.00 | 0.00 | 66 | 1020.7 |
| 20260901190503 | 65 | 248 | 2.0 | 2.0 | 0.00 | 0.00 | 0.00 | 65 | 1020.5 |
| 20260901185503 | 65 | 241 | 4.0 | 6.0 | 0.00 | 0.00 | 0.00 | 64 | 1020.5 |
| 20260901185003 | 66 | 250 | 2.0 | 2.0 | 0.00 | 0.00 | 0.00 | 63 | 1020.5 |
| 20260901184502 | 66 | 244 | 3.0 | 4.0 | 0.00 | 0.00 | 0.00 | 63 | 1020.6 |
| 20260901183516 | 67 | 263 | 2.0 | 4.0 | 0.00 | 0.00 | 0.00 | 61 | 1020.6 |
| 20260901183006 | 67 | 251 | 4.0 | 6.0 | 0.00 | 0.00 | 0.00 | 60 | 1020.4 |
| 20260901182506 | 67 | 242 | 4.0 | 5.0 | 0.00 | 0.00 | 0.00 | 59 | 1020.5 |
| 20260901181520 | 68 | 241 | 3.0 | 4.0 | 0.00 | 0.00 | 0.00 | 55 | 1020.5 |
| 20260901181014 | 68 | 248 | 1.0 | 2.0 | 0.00 | 0.00 | 0.00 | 55 | 1020.5 |
| 20260901180507 | 68 | 235 | 2.0 | 3.0 | 0.00 | 0.00 | 0.00 | 54 | 1020.7 |
| 20260901175506 | 69 | 210 | 2.0 | 2.0 | 0.00 | 0.00 | 0.00 | 53 | 1020.8 |
| 20260901175006 | 70 | 211 | 2.0 | 3.0 | 0.00 | 0.00 | 0.00 | 52 | 1020.6 |
| 20260901174521 | 70 | 205 | 2.0 | 5.0 | 0.00 | 0.00 | 0.00 | 52 | 1020.7 |
| 20260901173510 | 71 | 266 | 1.0 | 2.0 | 0.00 | 0.00 | 0.00 | 50 | 1020.5 |
| 20260901173010 | 71 | 264 | 3.0 | 4.0 | 0.00 | 0.00 | 0.00 | 50 | 1020.4 |
| 20260901172509 | 71 | 250 | 2.0 | 3.0 | 0.00 | 0.00 | 0.00 | 50 | 1020.4 |
| 20260901171523 | 71 | 216 | 1.0 | 2.0 | 0.00 | 0.00 | 0.00 | 50 | 1020.6 |
| 20260901170958 | 71 | 217 | 2.0 | 2.0 | 0.00 | 0.00 | 0.00 | 50 | 1020.5 |
| 20260901170513 | 72 | 215 | 2.0 | 4.0 | 0.00 | 0.00 | 0.00 | 47 | 1020.5 |
| 20260901165512 | 76 | 224 | 3.0 | 4.0 | 0.00 | 0.00 | 0.00 | 39 | 1020.5 |
| 20260901165011 | 76 | 238 | 2.0 | 4.0 | 0.00 | 0.00 | 0.00 | 40 | 1020.5 |
| 20260901164511 | 76 | 281 | 4.0 | 8.0 | 0.00 | 0.00 | 0.00 | 40 | 1020.4 |
| 20260901163511 | 76 | 214 | 4.0 | 5.0 | 0.00 | 0.00 | 0.00 | 40 | 1020.5 |
| 20260901163010 | 75 | 251 | 2.0 | 3.0 | 0.00 | 0.00 | 0.00 | 40 | 1020.5 |
| 20260901162500 | 74 | 236 | 2.0 | 3.0 | 0.00 | 0.00 | 0.00 | 40 | 1020.4 |
| 20260901161515 | 74 | 261 | 1.0 | 2.0 | 0.00 | 0.00 | 0.00 | 44 | 1020.6 |
| 20260901161005 | 74 | 280 | 2.0 | 2.0 | 0.00 | 0.00 | 0.00 | 42 | 1020.4 |
| 20260901160504 | 74 | 312 | 3.0 | 4.0 | 0.00 | 0.00 | 0.00 | 42 | 1020.5 |
| 20260901155504 | 73 | 328 | 4.0 | 6.0 | 0.00 | 0.00 | 0.00 | 43 | 1020.6 |
| 20260901155018 | 73 | 335 | 3.0 | 4.0 | 0.00 | 0.00 | 0.00 | 43 | 1020.6 |
| 20260901154508 | 73 | 311 | 2.0 | 4.0 | 0.00 | 0.00 | 0.00 | 45 | 1020.8 |
| 20260901153507 | 72 | 305 | 4.0 | 6.0 | 0.00 | 0.00 | 0.00 | 48 | 1020.7 |
| 20260901153006 | 72 | 293 | 2.0 | 3.0 | 0.00 | 0.00 | 0.00 | 46 | 1020.8 |
| 20260901152506 | 72 | 292 | 2.0 | 2.0 | 0.00 | 0.00 | 0.00 | 43 | 1020.7 |
| 20260901151504 | 73 | 288 | 4.0 | 6.0 | 0.00 | 0.00 | 0.00 | 42 | 1020.9 |
| 20260901151003 | 73 | 280 | 3.0 | 5.0 | 0.00 | 0.00 | 0.00 | 42 | 1020.8 |
| 20260901150502 | 73 | 281 | 6.0 | 8.0 | 0.00 | 0.00 | 0.00 | 41 | 1020.6 |
| 20260901150002 | 73 | 284 | 2.0 | 3.0 | 0.00 | 0.00 | 0.00 | 41 | 1020.9 |
| 20260901145517 | 74 | 283 | 5.0 | 8.0 | 0.00 | 0.00 | 0.00 | 40 | 1020.7 |
| 20260901145001 | 75 | 275 | 2.0 | 4.0 | 0.00 | 0.00 | 0.00 | 41 | 1020.6 |
| 20260901144501 | 74 | 265 | 2.0 | 4.0 | 0.00 | 0.00 | 0.00 | 42 | 1020.5 |
| 20260901144001 | 73 | 257 | 5.0 | 9.0 | 0.00 | 0.00 | 0.00 | 41 | 1020.6 |